FDX5044 KMEM-KOAK

Flight info

Callsign FDX5044
Flight time 3h 49m
Altitude 34000
Route ZUMIT5 FOXOM KK39E KD48W KU51O JSICA RPARK OAKES3
Aircraft B77L/H-SDE1E2E3FGHIJ2J3J4J5M1RWXY/LB1D1

Departure

Time 2026-05-06 15:20
Airport Memphis International Airport (KMEM)

Arrival

Time 2026-05-06 19:09
Airport San Francisco Bay Oakland International Airport (KOAK)
Time Latitude Longitude Altitude Speed Heading
2026-05-06 14:51 35.06019 -89.97111 335 ft 0 kts
2026-05-06 15:04 35.06015 -89.97111 335 ft 3 kts
2026-05-06 15:04 35.05988 -89.97109 334 ft 4 kts 346°
2026-05-06 15:04 35.05963 -89.97098 330 ft 4 kts 328°
2026-05-06 15:05 35.05942 -89.97077 329 ft 4 kts 306°
2026-05-06 15:05 35.05931 -89.97049 330 ft 4 kts 279°
2026-05-06 15:05 35.05929 -89.97038 330 ft 0 kts 272°
2026-05-06 15:08 35.05930 -89.97042 331 ft 2 kts 272°
2026-05-06 15:09 35.05931 -89.97096 334 ft 9 kts 272°
2026-05-06 15:09 35.05921 -89.97167 329 ft 9 kts 232°
2026-05-06 15:09 35.05865 -89.97189 331 ft 9 kts 180°
2026-05-06 15:09 35.05805 -89.97191 332 ft 9 kts 181°
2026-05-06 15:10 35.05744 -89.97194 332 ft 9 kts 182°
2026-05-06 15:10 35.05683 -89.97196 332 ft 9 kts 183°
2026-05-06 15:10 35.05636 -89.97240 330 ft 9 kts 234°
2026-05-06 15:10 35.05600 -89.97304 331 ft 11 kts 235°
2026-05-06 15:11 35.05553 -89.97389 329 ft 12 kts 237°
2026-05-06 15:11 35.05502 -89.97468 330 ft 11 kts 216°
2026-05-06 15:11 35.05427 -89.97486 329 ft 11 kts 178°
2026-05-06 15:11 35.05348 -89.97482 330 ft 12 kts 179°
2026-05-06 15:12 35.05244 -89.97480 327 ft 17 kts 179°
2026-05-06 15:12 35.05122 -89.97477 330 ft 18 kts 179°
2026-05-06 15:12 35.05000 -89.97475 328 ft 18 kts 179°
2026-05-06 15:12 35.04880 -89.97473 329 ft 18 kts 178°
2026-05-06 15:13 35.04758 -89.97470 330 ft 18 kts 179°
2026-05-06 15:13 35.04636 -89.97467 330 ft 18 kts 179°
2026-05-06 15:13 35.04515 -89.97465 330 ft 18 kts 179°
2026-05-06 15:13 35.04393 -89.97462 331 ft 18 kts 179°
2026-05-06 15:14 35.04270 -89.97459 331 ft 18 kts 179°
2026-05-06 15:14 35.04134 -89.97457 330 ft 21 kts 179°
2026-05-06 15:14 35.03985 -89.97454 331 ft 22 kts 178°
2026-05-06 15:14 35.03834 -89.97451 330 ft 22 kts 179°
2026-05-06 15:15 35.03683 -89.97448 329 ft 22 kts 179°
2026-05-06 15:15 35.03533 -89.97444 330 ft 22 kts 178°
2026-05-06 15:15 35.03382 -89.97442 329 ft 22 kts 179°
2026-05-06 15:15 35.03232 -89.97437 330 ft 22 kts 179°
2026-05-06 15:16 35.03081 -89.97435 330 ft 22 kts 179°
2026-05-06 15:16 35.02931 -89.97431 330 ft 22 kts 179°
2026-05-06 15:16 35.02780 -89.97428 330 ft 22 kts 179°
2026-05-06 15:16 35.02661 -89.97426 331 ft 14 kts 179°
2026-05-06 15:17 35.02563 -89.97424 330 ft 14 kts 179°
2026-05-06 15:17 35.02475 -89.97422 330 ft 9 kts 179°
2026-05-06 15:17 35.02429 -89.97436 328 ft 7 kts 217°
2026-05-06 15:17 35.02419 -89.97451 328 ft 7 kts 238°
2026-05-06 15:18 35.02415 -89.97465 327 ft 7 kts 252°
2026-05-06 15:18 35.02416 -89.97523 326 ft 7 kts 277°
2026-05-06 15:18 35.02453 -89.97555 328 ft 7 kts 356°
2026-05-06 15:18 35.02460 -89.97555 325 ft 0 kts 359°
2026-05-06 15:19 35.02477 -89.97555 327 ft 16 kts 359°
2026-05-06 15:19 35.02819 -89.97563 328 ft 81 kts 359°
2026-05-06 15:19 35.03578 -89.97578 323 ft 135 kts 359°
2026-05-06 15:20 35.04657 -89.97608 391 ft 168 kts 359°
2026-05-06 15:20 35.05832 -89.97643 832 ft 173 kts 359°
2026-05-06 15:20 35.07054 -89.97683 1327 ft 176 kts 356°
2026-05-06 15:20 35.08207 -89.98150 1752 ft 180 kts 325°
2026-05-06 15:21 35.09215 -89.99071 2232 ft 183 kts 324°
2026-05-06 15:21 35.10295 -90.00069 2418 ft 206 kts 324°
2026-05-06 15:21 35.11491 -90.01172 2692 ft 226 kts 324°
2026-05-06 15:21 35.12808 -90.02389 3010 ft 245 kts 321°
2026-05-06 15:22 35.13993 -90.03890 3461 ft 252 kts 295°
2026-05-06 15:22 35.14450 -90.05940 4069 ft 251 kts 275°
2026-05-06 15:22 35.14550 -90.08038 5032 ft 243 kts 270°
2026-05-06 15:22 35.14596 -90.10055 5910 ft 241 kts 270°
2026-05-06 15:23 35.14645 -90.12149 6602 ft 245 kts 270°
2026-05-06 15:23 35.14694 -90.14201 7336 ft 244 kts 270°
2026-05-06 15:23 35.14719 -90.16284 8046 ft 246 kts 270°
2026-05-06 15:23 35.14737 -90.18382 8741 ft 248 kts 270°
2026-05-06 15:24 35.14757 -90.20493 9444 ft 250 kts 270°
2026-05-06 15:24 35.14781 -90.22630 10114 ft 252 kts 270°
2026-05-06 15:24 35.14805 -90.24824 10494 ft 268 kts 269°
2026-05-06 15:24 35.14831 -90.27192 10656 ft 290 kts 269°
2026-05-06 15:25 35.14863 -90.29751 10822 ft 313 kts 270°
2026-05-06 15:25 35.15001 -90.32488 11185 ft 329 kts 273°
2026-05-06 15:25 35.15217 -90.35302 11853 ft 335 kts 273°
2026-05-06 15:25 35.15448 -90.38151 12735 ft 337 kts 273°
2026-05-06 15:26 35.15676 -90.40997 13694 ft 336 kts 272°
2026-05-06 15:26 35.15898 -90.43840 14527 ft 337 kts 272°
2026-05-06 15:26 35.16115 -90.46703 15284 ft 339 kts 271°
2026-05-06 15:26 35.16329 -90.49586 16027 ft 342 kts 271°
2026-05-06 15:27 35.16543 -90.52496 16784 ft 345 kts 271°
2026-05-06 15:27 35.16754 -90.55386 17541 ft 347 kts 271°
2026-05-06 15:27 35.16968 -90.58331 18274 ft 349 kts 271°
2026-05-06 15:27 35.17183 -90.61303 18917 ft 352 kts 271°
2026-05-06 15:28 35.17399 -90.64299 19527 ft 355 kts 271°
2026-05-06 15:28 35.17616 -90.67317 20153 ft 358 kts 271°
2026-05-06 15:28 35.17834 -90.70358 20764 ft 360 kts 271°
2026-05-06 15:28 35.18051 -90.73415 21369 ft 363 kts 271°
2026-05-06 15:29 35.18181 -90.76506 21980 ft 365 kts 268°
2026-05-06 15:29 35.18211 -90.79618 22554 ft 367 kts 267°
2026-05-06 15:29 35.18231 -90.82753 23131 ft 370 kts 268°
2026-05-06 15:29 35.18267 -90.85915 23673 ft 373 kts 268°
2026-05-06 15:30 35.18314 -90.89104 24152 ft 376 kts 268°
2026-05-06 15:30 35.18366 -90.92297 24693 ft 377 kts 268°
2026-05-06 15:30 35.18416 -90.95508 25217 ft 378 kts 268°
2026-05-06 15:30 35.18465 -90.98725 25725 ft 380 kts 268°
2026-05-06 15:31 35.18723 -91.01954 26177 ft 387 kts 277°
2026-05-06 15:31 35.19561 -91.05107 26572 ft 393 kts 284°
2026-05-06 15:31 35.20521 -91.08259 26982 ft 397 kts 283°
2026-05-06 15:32 35.22393 -91.14641 27987 ft 400 kts 283°
2026-05-06 15:32 35.23320 -91.17848 28477 ft 400 kts 283°
2026-05-06 15:32 35.24246 -91.21070 28958 ft 402 kts 282°
2026-05-06 15:32 35.24862 -91.23218 29232 ft 404 kts 282°
2026-05-06 15:33 35.26095 -91.27527 29751 ft 407 kts 282°
2026-05-06 15:33 35.27031 -91.30803 30121 ft 409 kts 282°
2026-05-06 15:33 35.27970 -91.34090 30492 ft 409 kts 282°
2026-05-06 15:33 35.28906 -91.37363 30988 ft 405 kts 282°
2026-05-06 15:34 35.29831 -91.40598 31538 ft 400 kts 282°
2026-05-06 15:34 35.30451 -91.42766 31902 ft 398 kts 282°
2026-05-06 15:34 35.31359 -91.45954 32375 ft 395 kts 282°
2026-05-06 15:34 35.32259 -91.49118 32808 ft 393 kts 281°
2026-05-06 15:35 35.33141 -91.52229 33194 ft 391 kts 281°
2026-05-06 15:35 35.34030 -91.55365 33661 ft 388 kts 281°
2026-05-06 15:35 35.34922 -91.58515 34086 ft 386 kts 281°
2026-05-06 15:35 35.35791 -91.61598 34073 ft 389 kts 281°
2026-05-06 15:36 35.37552 -91.67844 34087 ft 385 kts 281°
2026-05-06 15:36 35.39294 -91.74023 34084 ft 382 kts 281°
2026-05-06 15:37 35.41023 -91.80177 34091 ft 381 kts 281°
2026-05-06 15:37 35.42744 -91.86321 34081 ft 381 kts 281°
2026-05-06 15:38 35.44464 -91.92469 34091 ft 382 kts 280°
2026-05-06 15:38 35.46185 -91.98640 34088 ft 383 kts 280°
2026-05-06 15:39 35.47910 -92.04835 34082 ft 384 kts 280°
2026-05-06 15:39 35.49634 -92.11039 34088 ft 385 kts 280°
2026-05-06 15:40 35.51347 -92.17211 34091 ft 384 kts 280°
2026-05-06 15:40 35.53062 -92.23406 34087 ft 383 kts 280°
2026-05-06 15:41 35.54771 -92.29600 34102 ft 382 kts 280°
2026-05-06 15:41 35.56471 -92.35774 34086 ft 381 kts 279°
2026-05-06 15:42 35.58165 -92.41941 34103 ft 381 kts 279°
2026-05-06 15:42 35.59854 -92.48104 34099 ft 380 kts 279°
2026-05-06 15:43 35.61535 -92.54251 34104 ft 379 kts 279°
2026-05-06 15:43 35.63215 -92.60403 34103 ft 379 kts 279°
2026-05-06 15:44 35.64893 -92.66574 34088 ft 380 kts 279°
2026-05-06 15:44 35.66571 -92.72749 34097 ft 381 kts 279°
2026-05-06 15:45 35.68235 -92.78889 34077 ft 380 kts 279°
2026-05-06 15:45 35.69908 -92.85070 34072 ft 381 kts 279°
2026-05-06 15:46 35.71575 -92.91251 34066 ft 381 kts 279°
2026-05-06 15:46 35.73240 -92.97444 34089 ft 381 kts 279°
2026-05-06 15:47 35.74902 -93.03629 34079 ft 380 kts 279°
2026-05-06 15:47 35.76557 -93.09803 34072 ft 379 kts 279°
2026-05-06 15:48 35.78205 -93.15969 34074 ft 379 kts 279°
2026-05-06 15:48 35.79852 -93.22148 34078 ft 379 kts 279°
2026-05-06 15:49 35.81494 -93.28325 34079 ft 379 kts 279°
2026-05-06 15:49 35.83126 -93.34469 34080 ft 379 kts 279°
2026-05-06 15:50 35.84762 -93.40647 34068 ft 379 kts 279°
2026-05-06 15:50 35.86393 -93.46825 34071 ft 379 kts 279°
2026-05-06 15:51 35.88022 -93.53005 34070 ft 378 kts 279°
2026-05-06 15:51 35.89644 -93.59170 34079 ft 378 kts 279°
2026-05-06 15:52 35.91265 -93.65353 34082 ft 379 kts 279°
2026-05-06 15:52 35.92884 -93.71540 34080 ft 379 kts 279°
2026-05-06 15:53 35.94499 -93.77727 34076 ft 378 kts 279°
2026-05-06 15:53 35.96110 -93.83909 34093 ft 379 kts 278°
2026-05-06 15:54 35.97710 -93.90068 34088 ft 380 kts 278°
2026-05-06 15:54 35.99318 -93.96277 34088 ft 380 kts 278°
2026-05-06 15:55 36.00928 -94.02504 34087 ft 380 kts 278°
2026-05-06 15:55 36.02534 -94.08725 34089 ft 380 kts 278°
2026-05-06 15:56 36.04134 -94.14940 34097 ft 380 kts 278°
2026-05-06 15:56 36.05730 -94.21160 34104 ft 380 kts 278°
2026-05-06 15:57 36.07325 -94.27388 34098 ft 380 kts 278°
2026-05-06 15:57 36.08911 -94.33595 34100 ft 381 kts 278°
2026-05-06 15:58 36.10503 -94.39842 34103 ft 381 kts 278°
2026-05-06 15:58 36.12096 -94.46107 34111 ft 381 kts 278°
2026-05-06 15:59 36.13681 -94.52359 34110 ft 381 kts 278°
2026-05-06 15:59 36.15263 -94.58608 34131 ft 380 kts 277°
2026-05-06 16:00 36.16842 -94.64865 34116 ft 381 kts 277°
2026-05-06 16:00 36.18420 -94.71131 34084 ft 381 kts 277°
2026-05-06 16:01 36.19989 -94.77380 34079 ft 380 kts 277°
2026-05-06 16:01 36.21556 -94.83631 34085 ft 379 kts 277°
2026-05-06 16:02 36.23107 -94.89842 34086 ft 380 kts 277°
2026-05-06 16:02 36.24665 -94.96091 34105 ft 379 kts 277°
2026-05-06 16:03 36.26220 -95.02342 34091 ft 379 kts 276°
2026-05-06 16:03 36.27771 -95.08595 34092 ft 379 kts 276°
2026-05-06 16:04 36.29315 -95.14838 34102 ft 379 kts 276°
2026-05-06 16:04 36.30847 -95.21047 34107 ft 379 kts 276°
2026-05-06 16:05 36.32387 -95.27300 34119 ft 379 kts 276°
2026-05-06 16:05 36.33922 -95.33554 34125 ft 379 kts 276°
2026-05-06 16:06 36.35454 -95.39810 34130 ft 379 kts 276°
2026-05-06 16:06 36.36985 -95.46074 34129 ft 380 kts 276°
2026-05-06 16:07 36.38516 -95.52359 34147 ft 381 kts 276°
2026-05-06 16:07 36.40046 -95.58652 34131 ft 381 kts 276°
2026-05-06 16:08 36.41572 -95.64940 34112 ft 380 kts 276°
2026-05-06 16:08 36.43090 -95.71216 34106 ft 379 kts 276°
2026-05-06 16:09 36.44603 -95.77491 34116 ft 379 kts 276°
2026-05-06 16:09 36.46114 -95.83771 34116 ft 380 kts 276°
2026-05-06 16:10 36.47615 -95.90031 34118 ft 381 kts 276°
2026-05-06 16:10 36.49126 -95.96336 34120 ft 381 kts 276°
2026-05-06 16:11 36.50619 -96.02652 34128 ft 381 kts 276°
2026-05-06 16:11 36.52042 -96.08992 34151 ft 381 kts 275°
2026-05-06 16:12 36.53455 -96.15347 34125 ft 382 kts 275°
2026-05-06 16:12 36.54875 -96.21724 34106 ft 382 kts 275°
2026-05-06 16:13 36.56286 -96.28059 34106 ft 382 kts 275°
2026-05-06 16:13 36.57700 -96.34418 34107 ft 381 kts 275°
2026-05-06 16:14 36.59108 -96.40769 34124 ft 381 kts 275°
2026-05-06 16:14 36.60510 -96.47114 34145 ft 380 kts 275°
2026-05-06 16:15 36.61910 -96.53464 34120 ft 379 kts 275°
2026-05-06 16:15 36.63303 -96.59794 34111 ft 379 kts 275°
2026-05-06 16:16 36.64687 -96.66109 34111 ft 378 kts 275°
2026-05-06 16:16 36.66068 -96.72430 34119 ft 378 kts 275°
2026-05-06 16:17 36.67446 -96.78749 34122 ft 377 kts 275°
2026-05-06 16:17 36.68808 -96.85015 34146 ft 377 kts 275°
2026-05-06 16:18 36.70177 -96.91333 34148 ft 378 kts 275°
2026-05-06 16:18 36.71547 -96.97669 34147 ft 378 kts 275°
2026-05-06 16:19 36.72913 -97.04006 34148 ft 379 kts 275°
2026-05-06 16:19 36.74278 -97.10357 34153 ft 379 kts 275°
2026-05-06 16:20 36.75411 -97.15640 34149 ft 379 kts 275°
2026-05-06 16:20 36.76771 -97.21998 34142 ft 379 kts 275°
2026-05-06 16:21 36.78129 -97.28362 34164 ft 380 kts 275°
2026-05-06 16:21 36.79483 -97.34727 34158 ft 379 kts 275°
2026-05-06 16:22 36.80833 -97.41090 34159 ft 379 kts 275°
2026-05-06 16:22 36.82177 -97.47443 34150 ft 378 kts 274°
2026-05-06 16:23 36.83515 -97.53790 34112 ft 378 kts 274°
2026-05-06 16:23 36.84848 -97.60129 34126 ft 378 kts 274°
2026-05-06 16:24 36.86170 -97.66439 34110 ft 378 kts 274°
2026-05-06 16:24 36.87496 -97.72783 34121 ft 378 kts 274°
2026-05-06 16:25 36.88822 -97.79144 34123 ft 378 kts 274°
2026-05-06 16:25 36.90142 -97.85495 34134 ft 378 kts 274°
2026-05-06 16:26 36.91458 -97.91848 34135 ft 378 kts 274°
2026-05-06 16:26 36.92773 -97.98213 34140 ft 378 kts 274°
2026-05-06 16:27 36.94086 -98.04587 34141 ft 378 kts 274°
2026-05-06 16:27 36.95396 -98.10960 34142 ft 379 kts 274°
2026-05-06 16:28 36.96704 -98.17352 34153 ft 380 kts 274°
2026-05-06 16:28 36.98011 -98.23750 34143 ft 380 kts 274°
2026-05-06 16:29 36.99315 -98.30154 34142 ft 379 kts 274°
2026-05-06 16:29 37.00613 -98.36546 34150 ft 379 kts 274°
2026-05-06 16:30 37.01688 -98.41859 34141 ft 379 kts 274°
2026-05-06 16:30 37.03189 -98.49294 34147 ft 378 kts 274°
2026-05-06 16:31 37.04475 -98.55683 34153 ft 378 kts 274°
2026-05-06 16:31 37.05757 -98.62080 34148 ft 379 kts 274°
2026-05-06 16:32 37.07037 -98.68479 34151 ft 379 kts 274°
2026-05-06 16:32 37.08312 -98.74876 34163 ft 379 kts 274°
2026-05-06 16:33 37.09585 -98.81280 34155 ft 379 kts 274°
2026-05-06 16:34 37.11490 -98.90901 34160 ft 379 kts 274°
2026-05-06 16:34 37.12746 -98.97265 34141 ft 379 kts 274°
2026-05-06 16:35 37.14006 -99.03676 34183 ft 379 kts 274°
2026-05-06 16:35 37.15265 -99.10093 34176 ft 378 kts 273°
2026-05-06 16:36 37.16516 -99.16497 34161 ft 378 kts 273°
2026-05-06 16:36 37.17764 -99.22897 34164 ft 377 kts 273°
2026-05-06 16:37 37.19005 -99.29285 34161 ft 377 kts 273°
2026-05-06 16:37 37.20241 -99.35670 34160 ft 376 kts 273°
2026-05-06 16:38 37.21472 -99.42052 34162 ft 376 kts 273°
2026-05-06 16:38 37.22701 -99.48438 34180 ft 377 kts 273°
2026-05-06 16:39 37.23928 -99.54836 34159 ft 377 kts 273°
2026-05-06 16:39 37.25152 -99.61237 34163 ft 377 kts 273°
2026-05-06 16:40 37.26367 -99.67609 34161 ft 377 kts 273°
2026-05-06 16:40 37.27586 -99.74021 34160 ft 377 kts 273°
2026-05-06 16:41 37.28800 -99.80433 34158 ft 378 kts 273°
2026-05-06 16:41 37.30013 -99.86859 34161 ft 378 kts 273°
2026-05-06 16:42 37.31227 -99.93313 34171 ft 381 kts 273°
2026-05-06 16:42 37.32446 -99.99814 34162 ft 383 kts 273°
2026-05-06 16:43 37.33665 -100.06331 34163 ft 383 kts 273°
2026-05-06 16:43 37.34883 -100.12859 34152 ft 384 kts 273°
2026-05-06 16:44 37.36097 -100.19386 34152 ft 383 kts 273°
2026-05-06 16:44 37.37304 -100.25899 34154 ft 383 kts 272°
2026-05-06 16:45 37.38499 -100.32377 34161 ft 383 kts 272°
2026-05-06 16:45 37.39700 -100.38906 34155 ft 384 kts 272°
2026-05-06 16:46 37.40900 -100.45453 34149 ft 384 kts 272°
2026-05-06 16:46 37.42096 -100.51995 34152 ft 384 kts 272°
2026-05-06 16:47 37.43288 -100.58539 34155 ft 384 kts 272°
2026-05-06 16:47 37.44479 -100.65104 34153 ft 385 kts 272°
2026-05-06 16:48 37.45671 -100.71692 34157 ft 386 kts 272°
2026-05-06 16:48 37.46863 -100.78307 34175 ft 389 kts 273°
2026-05-06 16:49 37.48052 -100.84932 34156 ft 392 kts 273°
2026-05-06 16:49 37.49256 -100.91657 34150 ft 394 kts 273°
2026-05-06 16:50 37.50460 -100.98396 34140 ft 395 kts 273°
2026-05-06 16:50 37.51661 -101.05145 34153 ft 395 kts 273°
2026-05-06 16:51 37.52858 -101.11892 34157 ft 394 kts 273°
2026-05-06 16:51 37.54048 -101.18629 34142 ft 394 kts 273°
2026-05-06 16:52 37.55225 -101.25316 34168 ft 393 kts 273°
2026-05-06 16:52 37.56403 -101.32036 34193 ft 393 kts 274°
2026-05-06 16:53 37.57591 -101.38876 34188 ft 405 kts 274°
2026-05-06 16:53 37.58805 -101.45861 34176 ft 408 kts 274°
2026-05-06 16:54 37.60021 -101.52844 34167 ft 407 kts 274°
2026-05-06 16:54 37.61228 -101.59809 34171 ft 406 kts 274°
2026-05-06 16:55 37.62427 -101.66769 34181 ft 407 kts 275°
2026-05-06 16:55 37.63619 -101.73752 34188 ft 415 kts 276°
2026-05-06 16:56 37.64852 -101.80934 34178 ft 420 kts 276°
2026-05-06 16:56 37.66095 -101.88136 34165 ft 419 kts 276°
2026-05-06 16:57 37.67317 -101.95320 34165 ft 418 kts 276°
2026-05-06 16:57 37.68525 -102.02502 34166 ft 417 kts 276°
2026-05-06 16:58 37.69711 -102.09672 34153 ft 418 kts 276°
2026-05-06 16:58 37.70911 -102.16857 34161 ft 418 kts 276°
2026-05-06 16:59 37.72114 -102.24058 34156 ft 420 kts 276°
2026-05-06 16:59 37.73310 -102.31246 34166 ft 420 kts 276°
2026-05-06 17:00 37.74509 -102.38482 34158 ft 421 kts 276°
2026-05-06 17:00 37.75704 -102.45733 34152 ft 422 kts 277°
2026-05-06 17:01 37.76900 -102.53015 34164 ft 424 kts 277°
2026-05-06 17:01 37.78095 -102.60318 34160 ft 425 kts 277°
2026-05-06 17:02 37.79288 -102.67640 34167 ft 425 kts 277°
2026-05-06 17:02 37.80476 -102.74965 34169 ft 425 kts 277°
2026-05-06 17:03 37.81661 -102.82303 34165 ft 426 kts 277°
2026-05-06 17:03 37.82842 -102.89645 34166 ft 426 kts 277°
2026-05-06 17:04 37.84021 -102.97002 34168 ft 427 kts 277°
2026-05-06 17:04 37.85194 -103.04362 34169 ft 427 kts 277°
2026-05-06 17:05 37.86364 -103.11723 34170 ft 427 kts 277°
2026-05-06 17:05 37.87529 -103.19093 34169 ft 427 kts 278°
2026-05-06 17:06 37.88682 -103.26412 34172 ft 427 kts 278°
2026-05-06 17:06 37.89838 -103.33782 34200 ft 427 kts 278°
2026-05-06 17:07 37.90989 -103.41152 34185 ft 427 kts 278°
2026-05-06 17:07 37.91941 -103.47275 34188 ft 426 kts 278°
2026-05-06 17:08 37.93082 -103.54641 34180 ft 426 kts 278°
2026-05-06 17:08 37.94220 -103.62014 34190 ft 427 kts 278°
2026-05-06 17:09 37.95354 -103.69403 34201 ft 427 kts 278°
2026-05-06 17:09 37.96485 -103.76801 34188 ft 427 kts 278°
2026-05-06 17:10 37.97612 -103.84203 34182 ft 428 kts 278°
2026-05-06 17:10 37.98735 -103.91612 34186 ft 429 kts 277°
2026-05-06 17:11 37.99857 -103.99051 34200 ft 430 kts 277°
2026-05-06 17:11 38.00675 -104.06555 34195 ft 430 kts 274°
2026-05-06 17:12 38.01380 -104.14082 34206 ft 430 kts 274°
2026-05-06 17:12 38.02079 -104.21576 34195 ft 431 kts 274°
2026-05-06 17:13 38.02791 -104.29148 34199 ft 434 kts 275°
2026-05-06 17:13 38.03507 -104.36764 34189 ft 436 kts 275°
2026-05-06 17:14 38.04224 -104.44420 34195 ft 437 kts 275°
2026-05-06 17:14 38.04937 -104.52096 34196 ft 438 kts 275°
2026-05-06 17:15 38.05646 -104.59784 34193 ft 438 kts 274°
2026-05-06 17:15 38.06349 -104.67466 34195 ft 438 kts 274°
2026-05-06 17:16 38.07047 -104.75137 34188 ft 437 kts 274°
2026-05-06 17:16 38.07732 -104.82741 34193 ft 436 kts 274°
2026-05-06 17:17 38.08416 -104.90382 34203 ft 435 kts 274°
2026-05-06 17:17 38.09095 -104.98018 34192 ft 435 kts 275°
2026-05-06 17:18 38.09768 -105.05654 34172 ft 435 kts 275°
2026-05-06 17:18 38.10436 -105.13284 34177 ft 435 kts 275°
2026-05-06 17:19 38.11100 -105.20929 34177 ft 436 kts 275°
2026-05-06 17:19 38.11761 -105.28591 34198 ft 437 kts 275°
2026-05-06 17:20 38.12417 -105.36278 34108 ft 439 kts 275°
2026-05-06 17:20 38.13073 -105.43994 34124 ft 440 kts 275°
2026-05-06 17:21 38.13724 -105.51729 34076 ft 441 kts 275°
2026-05-06 17:21 38.14370 -105.59464 34080 ft 441 kts 275°
2026-05-06 17:22 38.15012 -105.67211 34031 ft 440 kts 275°
2026-05-06 17:22 38.15649 -105.74966 34081 ft 442 kts 275°
2026-05-06 17:23 38.16281 -105.82702 34055 ft 444 kts 275°
2026-05-06 17:23 38.16912 -105.90520 34047 ft 446 kts 275°
2026-05-06 17:24 38.17541 -105.98361 34011 ft 446 kts 275°
2026-05-06 17:24 38.18164 -106.06206 34016 ft 447 kts 276°
2026-05-06 17:25 38.18784 -106.14080 34002 ft 449 kts 276°
2026-05-06 17:25 38.19403 -106.21995 33968 ft 450 kts 276°
2026-05-06 17:26 38.20018 -106.29933 33972 ft 452 kts 276°
2026-05-06 17:26 38.20628 -106.37898 33921 ft 453 kts 277°
2026-05-06 17:27 38.21232 -106.45831 33939 ft 454 kts 277°
2026-05-06 17:27 38.21836 -106.53828 33924 ft 455 kts 277°
2026-05-06 17:28 38.22431 -106.61801 33930 ft 456 kts 277°
2026-05-06 17:28 38.23026 -106.69846 33920 ft 456 kts 277°
2026-05-06 17:29 38.23614 -106.77881 33925 ft 456 kts 278°
2026-05-06 17:29 38.24197 -106.85901 33928 ft 455 kts 278°
2026-05-06 17:30 38.24772 -106.93910 33986 ft 454 kts 278°
2026-05-06 17:30 38.25343 -107.01916 33978 ft 454 kts 278°
2026-05-06 17:31 38.25906 -107.09913 33981 ft 454 kts 278°
2026-05-06 17:31 38.26463 -107.17877 33974 ft 454 kts 278°
2026-05-06 17:32 38.27017 -107.25887 33986 ft 455 kts 278°
2026-05-06 17:32 38.27566 -107.33908 33994 ft 455 kts 278°
2026-05-06 17:33 38.28110 -107.41937 33976 ft 456 kts 279°
2026-05-06 17:33 38.28649 -107.49981 34004 ft 456 kts 279°
2026-05-06 17:34 38.29184 -107.58033 34013 ft 457 kts 279°
2026-05-06 17:34 38.29715 -107.66102 34012 ft 458 kts 279°
2026-05-06 17:35 38.30241 -107.74177 34008 ft 458 kts 279°
2026-05-06 17:35 38.30757 -107.82249 34064 ft 457 kts 279°
2026-05-06 17:36 38.31526 -107.94356 34074 ft 457 kts 279°
2026-05-06 17:36 38.32032 -108.02433 34076 ft 457 kts 279°
2026-05-06 17:37 38.32531 -108.10502 34073 ft 457 kts 279°
2026-05-06 17:37 38.33025 -108.18572 34035 ft 457 kts 279°
2026-05-06 17:38 38.33513 -108.26648 34001 ft 457 kts 279°
2026-05-06 17:38 38.33997 -108.34726 34005 ft 457 kts 279°
2026-05-06 17:39 38.34472 -108.42755 33994 ft 458 kts 279°
2026-05-06 17:39 38.34942 -108.50839 33981 ft 458 kts 280°
2026-05-06 17:40 38.35412 -108.58950 33975 ft 460 kts 280°
2026-05-06 17:40 38.35879 -108.67098 33977 ft 462 kts 280°
2026-05-06 17:41 38.36334 -108.75207 33985 ft 461 kts 280°
2026-05-06 17:41 38.36786 -108.83384 33963 ft 463 kts 281°
2026-05-06 17:42 38.37238 -108.91594 33976 ft 465 kts 280°
2026-05-06 17:42 38.37687 -108.99837 33997 ft 467 kts 280°
2026-05-06 17:43 38.38130 -109.08114 33993 ft 469 kts 280°
2026-05-06 17:43 38.38567 -109.16405 33982 ft 469 kts 281°
2026-05-06 17:44 38.38999 -109.24708 34000 ft 470 kts 280°
2026-05-06 17:44 38.39425 -109.33017 34012 ft 471 kts 281°
2026-05-06 17:45 38.39851 -109.41368 34006 ft 472 kts 281°
2026-05-06 17:45 38.40270 -109.49745 33990 ft 474 kts 281°
2026-05-06 17:46 38.40669 -109.57886 34011 ft 475 kts 281°
2026-05-06 17:46 38.41078 -109.66318 33999 ft 477 kts 281°
2026-05-06 17:47 38.41483 -109.74778 33994 ft 478 kts 281°
2026-05-06 17:47 38.41879 -109.83228 33985 ft 478 kts 282°
2026-05-06 17:48 38.42269 -109.91681 34001 ft 477 kts 282°
2026-05-06 17:48 38.42654 -110.00079 34001 ft 477 kts 282°
2026-05-06 17:49 38.43034 -110.08527 33992 ft 477 kts 282°
2026-05-06 17:49 38.43408 -110.16988 33965 ft 478 kts 282°
2026-05-06 17:50 38.43775 -110.25445 33972 ft 478 kts 282°
2026-05-06 17:50 38.44138 -110.33916 33967 ft 479 kts 282°
2026-05-06 17:51 38.44494 -110.42404 33978 ft 480 kts 282°
2026-05-06 17:51 38.44845 -110.50905 33932 ft 480 kts 282°
2026-05-06 17:52 38.45191 -110.59402 33954 ft 481 kts 282°
2026-05-06 17:52 38.45362 -110.63664 34145 ft 481 kts 282°
2026-05-06 17:52 38.45531 -110.67936 34154 ft 482 kts 282°
2026-05-06 17:53 38.45867 -110.76501 34136 ft 484 kts 282°
2026-05-06 17:53 38.46140 -110.83632 34099 ft 484 kts 282°
2026-05-06 17:54 38.46465 -110.92230 34068 ft 485 kts 282°
2026-05-06 17:54 38.46784 -111.00836 34027 ft 486 kts 282°
2026-05-06 17:55 38.47097 -111.09462 33983 ft 487 kts 281°
2026-05-06 17:55 38.47403 -111.18046 33933 ft 486 kts 281°
2026-05-06 17:56 38.47702 -111.26662 33958 ft 486 kts 281°
2026-05-06 17:56 38.47997 -111.35282 33981 ft 486 kts 281°
2026-05-06 17:57 38.48281 -111.43905 33998 ft 487 kts 281°
2026-05-06 17:57 38.48564 -111.52547 33985 ft 487 kts 281°
2026-05-06 17:58 38.48839 -111.61178 34006 ft 487 kts 281°
2026-05-06 17:58 38.49109 -111.69815 34007 ft 486 kts 281°
2026-05-06 17:59 38.49371 -111.78439 34022 ft 486 kts 281°
2026-05-06 17:59 38.49627 -111.87060 34024 ft 486 kts 280°
2026-05-06 18:00 38.49878 -111.95683 34014 ft 486 kts 280°
2026-05-06 18:00 38.50116 -112.04295 34030 ft 485 kts 280°
2026-05-06 18:01 38.50335 -112.12866 34052 ft 488 kts 280°
2026-05-06 18:01 38.50555 -112.21530 34045 ft 489 kts 279°
2026-05-06 18:02 38.50763 -112.30205 34036 ft 489 kts 279°
2026-05-06 18:02 38.50965 -112.38893 34052 ft 491 kts 279°
2026-05-06 18:03 38.51165 -112.47618 34032 ft 492 kts 279°
2026-05-06 18:03 38.51356 -112.56351 34060 ft 491 kts 279°
2026-05-06 18:04 38.51539 -112.65064 34094 ft 491 kts 279°
2026-05-06 18:04 38.51721 -112.73792 34119 ft 492 kts 279°
2026-05-06 18:05 38.51895 -112.82525 34122 ft 492 kts 279°
2026-05-06 18:05 38.52062 -112.91249 34163 ft 491 kts 279°
2026-05-06 18:06 38.52219 -112.99969 34170 ft 492 kts 279°
2026-05-06 18:06 38.52372 -113.08704 34167 ft 492 kts 278°
2026-05-06 18:07 38.52520 -113.17441 34137 ft 492 kts 278°
2026-05-06 18:07 38.52661 -113.26129 34117 ft 493 kts 278°
2026-05-06 18:08 38.52795 -113.34893 34089 ft 493 kts 278°
2026-05-06 18:08 38.52923 -113.43644 34039 ft 492 kts 278°
2026-05-06 18:09 38.53043 -113.52377 34057 ft 491 kts 278°
2026-05-06 18:09 38.53157 -113.61094 34067 ft 490 kts 278°
2026-05-06 18:10 38.53266 -113.69807 34078 ft 490 kts 278°
2026-05-06 18:10 38.53368 -113.78522 34059 ft 491 kts 277°
2026-05-06 18:11 38.53463 -113.87187 34082 ft 492 kts 277°
2026-05-06 18:11 38.53552 -113.95951 34076 ft 493 kts 277°
2026-05-06 18:12 38.53634 -114.04714 34073 ft 494 kts 277°
2026-05-06 18:12 38.53709 -114.13482 34071 ft 493 kts 277°
2026-05-06 18:13 38.53779 -114.22248 34077 ft 493 kts 277°
2026-05-06 18:13 38.53842 -114.31003 34074 ft 493 kts 277°
2026-05-06 18:14 38.53897 -114.39702 34048 ft 492 kts 277°
2026-05-06 18:14 38.53951 -114.48433 34061 ft 491 kts 277°
2026-05-06 18:15 38.53993 -114.57116 34424 ft 496 kts 277°
2026-05-06 18:15 38.54010 -114.61511 34834 ft 494 kts 277°
2026-05-06 18:15 38.54025 -114.65888 35273 ft 491 kts 277°
2026-05-06 18:16 38.54039 -114.70236 35704 ft 488 kts 277°
2026-05-06 18:16 38.54052 -114.74563 36064 ft 487 kts 277°
2026-05-06 18:16 38.54081 -114.83291 36059 ft 491 kts 277°
2026-05-06 18:17 38.54098 -114.91992 36046 ft 487 kts 277°
2026-05-06 18:17 38.54107 -115.00570 36059 ft 485 kts 277°
2026-05-06 18:18 38.54112 -115.09174 36040 ft 484 kts 277°
2026-05-06 18:18 38.54112 -115.17784 36061 ft 484 kts 277°
2026-05-06 18:19 38.54105 -115.26394 36057 ft 485 kts 277°
2026-05-06 18:19 38.54091 -115.35040 36031 ft 487 kts 276°
2026-05-06 18:20 38.54070 -115.43653 36061 ft 488 kts 276°
2026-05-06 18:20 38.54043 -115.52217 36050 ft 489 kts 276°
2026-05-06 18:21 38.54009 -115.60903 36059 ft 489 kts 276°
2026-05-06 18:21 38.53968 -115.69537 36055 ft 489 kts 276°
2026-05-06 18:22 38.53922 -115.78226 36061 ft 489 kts 276°
2026-05-06 18:22 38.53869 -115.86910 36056 ft 489 kts 276°
2026-05-06 18:23 38.53810 -115.95595 36040 ft 489 kts 276°
2026-05-06 18:23 38.53744 -116.04284 36052 ft 489 kts 276°
2026-05-06 18:24 38.53672 -116.12969 36059 ft 488 kts 275°
2026-05-06 18:24 38.53592 -116.21650 36053 ft 488 kts 275°
2026-05-06 18:25 38.53509 -116.30278 36057 ft 488 kts 275°
2026-05-06 18:25 38.53419 -116.38939 36065 ft 488 kts 275°
2026-05-06 18:26 38.53320 -116.47607 36073 ft 487 kts 275°
2026-05-06 18:26 38.53217 -116.56273 36067 ft 488 kts 275°
2026-05-06 18:27 38.53108 -116.64940 36078 ft 488 kts 275°
2026-05-06 18:27 38.52992 -116.73617 36081 ft 489 kts 275°
2026-05-06 18:28 38.52867 -116.82303 36086 ft 490 kts 275°
2026-05-06 18:28 38.52737 -116.91001 36069 ft 490 kts 274°
2026-05-06 18:29 38.52600 -116.99704 36094 ft 490 kts 274°
2026-05-06 18:29 38.52458 -117.08396 36088 ft 489 kts 274°
2026-05-06 18:30 38.52310 -117.17038 36087 ft 489 kts 274°
2026-05-06 18:30 38.52055 -117.25725 36073 ft 492 kts 269°
2026-05-06 18:31 38.50701 -117.34366 36070 ft 500 kts 257°
2026-05-06 18:31 38.48452 -117.42770 36069 ft 500 kts 255°
2026-05-06 18:32 38.46155 -117.51144 36073 ft 500 kts 255°
2026-05-06 18:32 38.43889 -117.59530 36089 ft 500 kts 255°
2026-05-06 18:33 38.41652 -117.67876 36078 ft 501 kts 255°
2026-05-06 18:33 38.39396 -117.76285 36080 ft 501 kts 255°
2026-05-06 18:34 38.37131 -117.84691 36076 ft 501 kts 255°
2026-05-06 18:34 38.34857 -117.93098 36079 ft 501 kts 255°
2026-05-06 18:35 38.32580 -118.01492 36074 ft 502 kts 255°
2026-05-06 18:35 38.30287 -118.09911 36067 ft 502 kts 255°
2026-05-06 18:36 38.27995 -118.18301 36075 ft 501 kts 255°
2026-05-06 18:36 38.25701 -118.26668 36074 ft 500 kts 255°
2026-05-06 18:37 38.23797 -118.33599 36083 ft 499 kts 255°
2026-05-06 18:37 38.21115 -118.43328 36096 ft 499 kts 255°
2026-05-06 18:38 38.18809 -118.51664 36087 ft 500 kts 255°
2026-05-06 18:38 38.16496 -118.59996 36099 ft 500 kts 255°
2026-05-06 18:39 38.14177 -118.68333 36093 ft 500 kts 254°
2026-05-06 18:40 38.11179 -118.80873 36111 ft 494 kts 264°
2026-05-06 18:40 38.10082 -118.89442 36118 ft 492 kts 266°
2026-05-06 18:41 38.08995 -118.98056 36116 ft 494 kts 264°
2026-05-06 18:41 38.07787 -119.06639 36142 ft 494 kts 264°
2026-05-06 18:42 38.06519 -119.15226 36148 ft 495 kts 263°
2026-05-06 18:42 38.05459 -119.22363 36170 ft 495 kts 263°
2026-05-06 18:43 38.04182 -119.30965 36165 ft 496 kts 263°
2026-05-06 18:43 38.02900 -119.39567 36178 ft 497 kts 263°
2026-05-06 18:44 38.01617 -119.48122 36135 ft 485 kts 263°
2026-05-06 18:44 38.00987 -119.52300 35775 ft 481 kts 263°
2026-05-06 18:44 38.00363 -119.56450 35300 ft 477 kts 263°
2026-05-06 18:44 37.99745 -119.60553 34884 ft 472 kts 263°
2026-05-06 18:45 37.99132 -119.64617 34450 ft 468 kts 263°
2026-05-06 18:45 37.98527 -119.68605 33994 ft 465 kts 263°
2026-05-06 18:45 37.97917 -119.72612 33477 ft 462 kts 263°
2026-05-06 18:45 37.97305 -119.76588 33014 ft 457 kts 263°
2026-05-06 18:46 37.96697 -119.80524 32552 ft 453 kts 263°
2026-05-06 18:46 37.96092 -119.84423 32113 ft 449 kts 262°
2026-05-06 18:46 37.95491 -119.88287 31669 ft 445 kts 262°
2026-05-06 18:46 37.94895 -119.92120 31242 ft 442 kts 262°
2026-05-06 18:47 37.94302 -119.95925 30822 ft 439 kts 262°
2026-05-06 18:47 37.93713 -119.99703 30365 ft 436 kts 262°
2026-05-06 18:47 37.93127 -120.03454 29883 ft 433 kts 262°
2026-05-06 18:47 37.92541 -120.07189 29409 ft 430 kts 262°
2026-05-06 18:48 37.91960 -120.10884 28960 ft 426 kts 262°
2026-05-06 18:48 37.91384 -120.14551 28513 ft 422 kts 262°
2026-05-06 18:48 37.90812 -120.18182 28094 ft 418 kts 262°
2026-05-06 18:48 37.90244 -120.21786 27654 ft 415 kts 262°
2026-05-06 18:49 37.89680 -120.25351 27241 ft 412 kts 262°
2026-05-06 18:49 37.89120 -120.28889 26835 ft 408 kts 262°
2026-05-06 18:49 37.88561 -120.32400 26419 ft 405 kts 262°
2026-05-06 18:49 37.88000 -120.35891 26006 ft 402 kts 262°
2026-05-06 18:50 37.87433 -120.39343 25610 ft 400 kts 261°
2026-05-06 18:50 37.86856 -120.42772 25214 ft 397 kts 261°
2026-05-06 18:50 37.86279 -120.46188 24817 ft 396 kts 261°
2026-05-06 18:50 37.85703 -120.49582 24426 ft 394 kts 261°
2026-05-06 18:51 37.85137 -120.52926 24021 ft 393 kts 261°
2026-05-06 18:51 37.84565 -120.56304 23599 ft 392 kts 261°
2026-05-06 18:51 37.83997 -120.59664 23150 ft 390 kts 261°
2026-05-06 18:51 37.83431 -120.63001 22746 ft 387 kts 261°
2026-05-06 18:52 37.82867 -120.66323 22334 ft 384 kts 261°
2026-05-06 18:52 37.82308 -120.69609 21942 ft 381 kts 261°
2026-05-06 18:52 37.81752 -120.72874 21557 ft 378 kts 261°
2026-05-06 18:52 37.81199 -120.76115 21168 ft 375 kts 261°
2026-05-06 18:53 37.80650 -120.79334 20785 ft 373 kts 260°
2026-05-06 18:53 37.80104 -120.82529 20406 ft 370 kts 260°
2026-05-06 18:53 37.79560 -120.85691 20168 ft 363 kts 260°
2026-05-06 18:53 37.79020 -120.88817 19708 ft 365 kts 260°
2026-05-06 18:54 37.78474 -120.91957 19279 ft 366 kts 260°
2026-05-06 18:54 37.77934 -120.95060 18839 ft 367 kts 260°
2026-05-06 18:54 37.77383 -120.98219 18355 ft 368 kts 260°
2026-05-06 18:54 37.76831 -121.01385 17860 ft 369 kts 260°
2026-05-06 18:55 37.76277 -121.04550 17383 ft 369 kts 259°
2026-05-06 18:55 37.75721 -121.07730 16777 ft 372 kts 259°
2026-05-06 18:55 37.75165 -121.10918 16368 ft 370 kts 259°
2026-05-06 18:55 37.74614 -121.14085 15984 ft 367 kts 259°
2026-05-06 18:56 37.74065 -121.17236 15541 ft 366 kts 259°
2026-05-06 18:56 37.73518 -121.20371 15115 ft 365 kts 259°
2026-05-06 18:56 37.72975 -121.23477 14828 ft 358 kts 259°
2026-05-06 18:56 37.72444 -121.26512 14475 ft 347 kts 259°
2026-05-06 18:57 37.71927 -121.29457 13749 ft 338 kts 259°
2026-05-06 18:57 37.71430 -121.32277 13292 ft 331 kts 259°
2026-05-06 18:57 37.70821 -121.35079 12869 ft 330 kts 253°
2026-05-06 18:57 37.70078 -121.37818 12484 ft 328 kts 252°
2026-05-06 18:58 37.69311 -121.40523 12081 ft 327 kts 252°
2026-05-06 18:58 37.68550 -121.43214 11702 ft 324 kts 252°
2026-05-06 18:58 37.67802 -121.45894 11316 ft 322 kts 252°
2026-05-06 18:58 37.67067 -121.48555 10948 ft 320 kts 253°
2026-05-06 18:59 37.66342 -121.51194 10561 ft 315 kts 253°
2026-05-06 18:59 37.65644 -121.53743 10172 ft 300 kts 253°
2026-05-06 18:59 37.64981 -121.56175 9787 ft 286 kts 253°
2026-05-06 18:59 37.64342 -121.58518 9456 ft 281 kts 253°
2026-05-06 19:00 37.63711 -121.60836 9145 ft 277 kts 253°
2026-05-06 19:00 37.63086 -121.63126 8806 ft 275 kts 252°
2026-05-06 19:00 37.62468 -121.65391 8458 ft 271 kts 253°
2026-05-06 19:00 37.61863 -121.67625 8123 ft 267 kts 252°
2026-05-06 19:01 37.61411 -121.69850 7814 ft 254 kts 267°
2026-05-06 19:01 37.61317 -121.72009 7583 ft 244 kts 269°
2026-05-06 19:01 37.61209 -121.74126 7292 ft 238 kts 267°
2026-05-06 19:01 37.61080 -121.76183 6973 ft 234 kts 267°
2026-05-06 19:02 37.60944 -121.78202 6686 ft 229 kts 267°
2026-05-06 19:02 37.60813 -121.80204 6398 ft 228 kts 267°
2026-05-06 19:02 37.60683 -121.82180 6126 ft 223 kts 270°
2026-05-06 19:02 37.60679 -121.84114 5855 ft 219 kts 272°
2026-05-06 19:03 37.60707 -121.86039 5593 ft 220 kts 272°
2026-05-06 19:03 37.60729 -121.87978 5382 ft 221 kts 273°
2026-05-06 19:03 37.60748 -121.89930 5109 ft 222 kts 272°
2026-05-06 19:03 37.60761 -121.91871 4840 ft 222 kts 272°
2026-05-06 19:04 37.60768 -121.93819 4570 ft 221 kts 272°
2026-05-06 19:04 37.60771 -121.95738 4285 ft 218 kts 270°
2026-05-06 19:04 37.60720 -121.97653 4026 ft 219 kts 269°
2026-05-06 19:04 37.60663 -121.99571 3774 ft 218 kts 269°
2026-05-06 19:05 37.60612 -122.01465 3558 ft 215 kts 269°
2026-05-06 19:05 37.60684 -122.03332 3342 ft 213 kts 280°
2026-05-06 19:05 37.60938 -122.05169 3099 ft 211 kts 279°
2026-05-06 19:05 37.61150 -122.06977 2828 ft 204 kts 281°
2026-05-06 19:06 37.61692 -122.08554 2591 ft 192 kts 305°
2026-05-06 19:06 37.62489 -122.09927 2421 ft 193 kts 308°
2026-05-06 19:06 37.63324 -122.11195 2154 ft 187 kts 310°
2026-05-06 19:06 37.64156 -122.12424 1876 ft 181 kts 309°
2026-05-06 19:07 37.64955 -122.13629 1614 ft 178 kts 309°
2026-05-06 19:07 37.65735 -122.14808 1408 ft 166 kts 309°
2026-05-06 19:07 37.66448 -122.15863 1152 ft 147 kts 309°
2026-05-06 19:07 37.67090 -122.16825 986 ft 143 kts 308°
2026-05-06 19:08 37.67735 -122.17805 809 ft 145 kts 309°
2026-05-06 19:08 37.68400 -122.18797 599 ft 148 kts 308°
2026-05-06 19:08 37.69074 -122.19813 400 ft 157 kts 307°
2026-05-06 19:08 37.69763 -122.20838 183 ft 151 kts 307°
2026-05-06 19:09 37.70426 -122.21841 18 ft 143 kts 308°
2026-05-06 19:09 37.70954 -122.22633 13 ft 86 kts 310°
2026-05-06 19:09 37.71203 -122.22992 14 ft 32 kts 318°
2026-05-06 19:09 37.71336 -122.23100 14 ft 17 kts 335°
2026-05-06 19:10 37.71416 -122.23135 13 ft 7 kts 345°
2026-05-06 19:10 37.71421 -122.23136 13 ft 0 kts 345°
2026-05-06 19:10 37.71423 -122.23137 13 ft 3 kts 345°
2026-05-06 19:11 37.71481 -122.23142 13 ft 10 kts 20°
2026-05-06 19:11 37.71495 -122.23069 14 ft 9 kts 117°
2026-05-06 19:11 37.71455 -122.23008 15 ft 9 kts 130°
2026-05-06 19:11 37.71411 -122.22942 14 ft 12 kts 130°
2026-05-06 19:12 37.71346 -122.22844 14 ft 16 kts 130°
2026-05-06 19:12 37.71274 -122.22737 14 ft 16 kts 130°
2026-05-06 19:12 37.71202 -122.22629 14 ft 16 kts 130°
2026-05-06 19:12 37.71142 -122.22539 14 ft 10 kts 130°
2026-05-06 19:13 37.71106 -122.22483 14 ft 7 kts 122°
2026-05-06 19:13 37.71113 -122.22424 14 ft 7 kts 52°
2026-05-06 19:13 37.71153 -122.22380 13 ft 9 kts 39°
2026-05-06 19:13 37.71223 -122.22306 13 ft 14 kts 40°
2026-05-06 19:14 37.71298 -122.22227 13 ft 14 kts 41°
2026-05-06 19:14 37.71364 -122.22137 14 ft 14 kts 48°
2026-05-06 19:14 37.71430 -122.22045 13 ft 14 kts 48°
2026-05-06 19:14 37.71471 -122.21987 13 ft 7 kts 47°
2026-05-06 19:15 37.71515 -122.21976 13 ft 7 kts 340°
2026-05-06 19:15 37.71550 -122.22019 14 ft 7 kts 312°
2026-05-06 19:15 37.71588 -122.22058 13 ft 7 kts 319°
2026-05-06 19:15 37.71620 -122.22094 13 ft 5 kts 318°
2026-05-06 19:16 37.71636 -122.22112 13 ft 2 kts 318°
2026-05-06 19:16 37.71640 -122.22117 13 ft 0 kts 318°